Regional Weather Roundup
Issued by NWS Cleveland, OH

Home | Current Version | Previous Version | Graphics & Text | Print | Product List | Glossary On
Versions: 1 2 3 4 5 6 7 8 9 10 11 12 13 14 15 16 17 18 19 20 21 22 23 24 25 26 27 28 29 30 31 32 33 34 35 36 37 38 39 40 41 42 43 44 45 46 47 48 49 50
000
ASUS41 KCLE 241600
RWRCLE
OHIO REGIONAL WEATHER ROUNDUP
NATIONAL WEATHER SERVICE WILMINGTON, OH
1200 PM EDT MON APR 24 2017

NOTE: "FAIR" INDICATES FEW OR NO CLOUDS BELOW 12,000 FEET WITH NO
SIGNIFICANT WEATHER AND/OR OBSTRUCTIONS TO VISIBILITY.

OHZ001>008-015>018-024>027-034-035-043-044-241700-
   NORTHWEST OHIO

CITY           SKY/WX    TMP DP  RH WIND       PRES   REMARKS
DEFIANCE       FAIR      63  37  38 E10       30.02F
FINDLAY        FAIR      65  38  36 NE14G21   29.99F
TOLEDO EXPRESS FAIR      61  36  39 NE16      30.04S
TOLEDO EXEC    FAIR      59  39  47 NE15G23   30.04F
LIMA           FAIR      66  35  31 NE17G24   29.97F
$$

OHZ009>014-019>023-028>033-038-089-241700-
   NORTHEAST OHIO

CITY           SKY/WX    TMP DP  RH WIND       PRES   REMARKS
CLE-HOPKINS    FAIR      66  42  41 N9        30.03F
CLE-LAKEFRONT  FAIR      54  47  77 NE17      30.01F
CUY CO. ARPT   SUNNY     70  32  24 E12       30.02F
LORAIN-ELYRIA  FAIR      65  37  35 NE10      30.01F
ASHTABULA      FAIR      68  36  30 E8        30.04F
AKRON-CANTON   FAIR      67  30  25 E13       30.00F
WOOSTER        NOT AVBL
MANSFIELD      FAIR      68  29  23 E15       29.98F
YOUNGSTOWN     FAIR      68  26  20 E17       30.03F
$$

OHZ042-051>053-060>062-070>072-077>081-241700-
  SOUTHWEST OHIO

CITY           SKY/WX    TMP DP  RH WIND       PRES   REMARKS
CINC-COVINGTON FAIR      65  39  38 NE13      29.91F
CINC-LUNKEN    FAIR      66  46  48 NE8       29.92F
HAMILTON       FAIR      67  45  45 NE6       29.93F
DAYTON         NOT AVBL
WRIGHT-PAT AFB FAIR      68  42  39 E13G20    29.93F
DAYTON GENERAL FAIR      66  46  48 NE10G20   29.92F
WILMINGTON     FAIR      63  48  58 E10       29.92F
$$

OHZ036-037-039>041-045>050-054>059-063>069-073>076-082>088-241700-
  CENTRAL AND SOUTHEAST OHIO

CITY           SKY/WX    TMP DP  RH WIND       PRES   REMARKS
COLUMBUS       FAIR      69  43  38 E12G20    29.93F
OSU AIRPORT    FAIR      68  41  37 NE14      29.93F
BOLTON FIELD   SUNNY     68  45  42 E14       29.94F
RICKENBACK AFB NOT AVBL
NEWARK         FAIR      69  42  37 E16       29.94F
MARION         FAIR      70  20  15 E22G28    29.97F
LANCASTER      FAIR      65  46  50 E15       29.94F
ZANESVILLE     PTSUNNY   66  45  46 E13       29.96F
NEW PHILLY     FAIR      67  44  43 SE14      29.99F
$$




USA.gov is the U.S. government's official web portal to all federal, state and local government web resources and services.